TimeCST,TemperatureF,Dew PointF,Humidity,Sea Level PressureIn,VisibilityMPH,Wind Direction,Wind SpeedMPH,Gust SpeedMPH,PrecipitationIn,Events,Conditions,WindDirDegrees,DateUTC
12:52 AM,28.9,21.9,75,29.94,10.0,SSE,10.4,-,N/A,,Clear,150,2013-02-26 06:52:00
1:52 AM,27.0,19.9,75,29.93,10.0,ENE,4.6,-,N/A,,Clear,70,2013-02-26 07:52:00
2:52 AM,24.1,19.0,81,29.94,10.0,SE,8.1,-,N/A,,Clear,130,2013-02-26 08:52:00
3:52 AM,23.0,18.0,81,29.93,10.0,ESE,4.6,-,N/A,,Clear,110,2013-02-26 09:52:00
4:52 AM,21.9,17.1,82,29.94,10.0,East,4.6,-,N/A,,Clear,90,2013-02-26 10:52:00
5:52 AM,21.0,17.1,85,29.95,10.0,SE,6.9,-,N/A,,Clear,130,2013-02-26 11:52:00
6:52 AM,21.0,17.1,85,29.97,10.0,SE,5.8,-,N/A,,Clear,140,2013-02-26 12:52:00
7:52 AM,21.0,17.1,85,29.98,10.0,East,4.6,-,N/A,,Clear,100,2013-02-26 13:52:00
8:52 AM,24.8,19.4,80,29.92,10.0,East,4.6,-,N/A,,Clear,80,2013-02-26 14:52:00
9:52 AM,28.9,19.9,69,29.99,10.0,Calm,Calm,-,N/A,,Clear,0,2013-02-26 15:52:00
10:52 AM,32.0,19.9,61,29.99,10.0,SE,4.6,-,N/A,,Clear,140,2013-02-26 16:52:00
11:52 AM,35.1,21.0,57,30.00,10.0,Calm,Calm,-,N/A,,Clear,0,2013-02-26 17:52:00
12:52 PM,39.0,19.0,45,30.00,10.0,SSW,5.8,-,N/A,,Clear,200,2013-02-26 18:52:00
1:52 PM,39.2,21.2,49,29.94,10.0,SSE,5.8,-,N/A,,Partly Cloudy,150,2013-02-26 19:52:00
2:52 PM,41.0,23.0,49,30.00,10.0,SW,4.6,-,N/A,,Overcast,230,2013-02-26 20:52:00
3:52 PM,42.1,21.0,43,30.01,10.0,Calm,Calm,-,N/A,,Overcast,0,2013-02-26 21:52:00
4:52 PM,39.9,24.1,53,30.03,10.0,ESE,5.8,-,N/A,,Clear,110,2013-02-26 22:52:00
5:52 PM,37.9,27.0,65,30.05,10.0,ENE,3.5,-,N/A,,Clear,70,2013-02-26 23:52:00
6:52 PM,34.0,26.1,73,30.08,10.0,NNW,5.8,-,N/A,,Clear,340,2013-02-27 00:52:00
7:52 PM,35.1,26.1,70,30.11,10.0,NNW,9.2,-,N/A,,Clear,340,2013-02-27 01:52:00
8:19 PM,34.0,27.0,75,30.05,10.0,NNW,10.4,-,N/A,,Mostly Cloudy,330,2013-02-27 02:19:00
8:52 PM,33.1,28.0,82,30.14,10.0,NNW,11.5,-,N/A,,Overcast,330,2013-02-27 02:52:00
9:07 PM,33.1,28.0,82,30.08,10.0,NNW,12.7,-,N/A,,Overcast,330,2013-02-27 03:07:00
9:52 PM,32.0,27.0,82,30.16,10.0,NNW,11.5,-,N/A,,Overcast,330,2013-02-27 03:52:00
10:25 PM,32.0,27.0,82,30.09,9.0,NNW,10.4,-,N/A,,Overcast,340,2013-02-27 04:25:00
10:52 PM,32.0,26.6,80,30.09,9.0,NNW,9.2,-,N/A,,Overcast,340,2013-02-27 04:52:00
11:48 PM,30.2,26.6,86,30.10,8.0,North,6.9,-,N/A,,Overcast,360,2013-02-27 05:48:00
11:52 PM,30.9,27.0,85,30.16,8.0,North,9.2,-,N/A,,Overcast,360,2013-02-27 05:52:00